EEL RIVER CAMP CA US current weather conditions

sailwx.info

Wind from 042 at 6 knots gusting 14

Air temperature 17.8° C
Dewpoint 3.6° C

Last reported at 2015-Mar-30 01:28 UTC.
Time now 2015-Mar-30 02:24 UTC

Location: N 40°08' W 123°49'.
View on Google Maps.

See reports from other nearby stations

  
Tides and Currents Weather Stations Pressure Air Temp Water Temp Dewpoint Dewpoint Depression Visibility Wind Speed Wind Dir Waves Ship Positions
date/time (UTC)wind fromknots sea level pressurealtimeterstation pressurevisibilityair tempwater tempwave heightnotes
2015-Mar-30 01:28 042 6 gusting 14 17.8
2015-Mar-30 00:28 022 7 gusting 13 20.0
2015-Mar-29 23:28 032 8 gusting 18 21.7
2015-Mar-29 22:28 026 7 gusting 15 22.8
2015-Mar-29 21:28 035 8 gusting 18 22.2
2015-Mar-29 20:28 056 7 gusting 13 21.1
2015-Mar-29 19:28 065 6 gusting 14 19.4
2015-Mar-29 18:28 044 4 gusting 11 18.3
2015-Mar-29 17:28 092 5 gusting 12 15.0
2015-Mar-29 16:28 042 3 gusting 11 13.9
2015-Mar-29 15:28 094 2 gusting 8 10.6
2015-Mar-29 14:28 277 1 gusting 3 6.7
2015-Mar-29 13:28 260 2 gusting 6 7.8
2015-Mar-29 12:28 038 5 gusting 12 10.0
2015-Mar-29 11:28 011 3 gusting 13 9.4
2015-Mar-29 10:28 318 4 gusting 6 7.8
2015-Mar-29 09:28 247 0 gusting 5 7.2
2015-Mar-29 08:28 7.2
2015-Mar-29 07:28 290 0 gusting 3 7.2
2015-Mar-29 06:28 327 1 gusting 12 8.3
2015-Mar-29 05:28 053 7 gusting 13 10.6
2015-Mar-29 04:28 321 0 gusting 13 8.9
2015-Mar-29 03:28 048 6 gusting 12 11.7
2015-Mar-29 02:28 011 4 gusting 13 13.3
2015-Mar-29 01:28 036 6 gusting 12 15.6
2015-Mar-29 00:28 311 5 gusting 13 18.3
2015-Mar-28 23:28 340 6 gusting 10 20.6
2015-Mar-28 22:28 036 4 gusting 9 20.6
2015-Mar-28 21:28 026 3 gusting 9 18.3
2015-Mar-28 20:28 081 3 gusting 10 18.9
2015-Mar-28 19:28 053 5 gusting 9 17.8
2015-Mar-28 18:28 069 5 gusting 13 16.1
2015-Mar-28 17:28 064 7 gusting 15 13.9
2015-Mar-28 16:28 089 3 gusting 7 11.7
2015-Mar-28 15:28 7.2
2015-Mar-28 14:28 240 1 gusting 3 5.6
2015-Mar-28 13:28 231 0 gusting 3 5.6
2015-Mar-28 12:28 257 1 gusting 3 6.1
2015-Mar-28 11:28 6.1
2015-Mar-28 10:28 279 2 gusting 5 7.8
2015-Mar-28 09:28 348 2 gusting 5 9.4
2015-Mar-28 08:28 060 0 gusting 6 11.1
2015-Mar-28 07:28 121 1 gusting 11 12.2
2015-Mar-28 06:28 048 1 gusting 6 12.2
2015-Mar-28 05:28 037 4 gusting 7 12.2
2015-Mar-28 04:28 040 5 gusting 10 13.3
2015-Mar-28 03:28 040 5 gusting 11 14.4
2015-Mar-28 02:28 010 4 gusting 9 15.6